Voltar ao catálogo

STARLINK-35473

AtivoComunicaçõesVLEO
NORAD 65937·PAYLOAD·🇺🇸 United States

Lançado Oct 8, 2025 de Vandenberg Space Force Base

Loading…

Próximas Passagens (próximas 24 horas)

TLE

AtualizadoSource: CelesTrak SupGP

Época: Sep 14, 2026, 15:33 UTC

1 65937C 25225AD  26257.64840278 -.00016124  00000+0 -47668-3 0  2573
2 65937  53.1606   5.2317 0001251  84.2038  49.0643 15.34379203    19

Acompanhe STARLINK-35473 em tempo real com AllMySat

Download on the App Store